Home   Weather   Albany   Past weeks

Flag for USA Past Weather in Albany, New York, USA — Yesterday and Last 2 Weeks

Now
44 °F

Light rain. Partly sunny.


Feels Like: 44 °F
Forecast: 45 / 64 °F
Wind: No wind

Location: Albany County Airport

Current Time: Feb 24, 2017 at 7:57:42 am

Latest Report: Feb 24, 2017 at 6:51 am


Visibility: 8 mi

Pressure: 29.89 "Hg

Humidity: 89%

Dew Point: 41 °F

Location of AlbanyLocation

Past Weather in Albany — Graph

°F

Albany Temperature Yesterday

Maximum temperature yesterday: 69 °F (at 2:51 pm)
Minimum temperature yesterday: 43 °F (at 5:51 am)
Average temperature yesterday: 54 °F

High & Low Weather Summary for the Past Weeks

 TemperatureHumidityPressure
High69 °F (Feb 23, 2:51 pm)93% (Feb 12, 9:51 pm)30.41 "Hg (Feb 12, 9:51 pm)
Low5 °F (Feb 10, 2:51 am)33% (Feb 21, 12:51 pm)29.34 "Hg (Feb 15, 1:58 pm)
Average32 °F65%29.86 "Hg
* Reported Feb 9 6:51 am — Feb 24 6:51 am, Albany, Weather by CustomWeather, © 2017

Note: Actual official high and low records may vary slightly from our data, if they occured in-between our weather recording intervals... More about our weather records

Advertising

Albany Weather History for the Previous 24 Hours

Scroll right to see more
 ConditionsComfort  
Time TempWeatherWind HumidityBarometerVisibility
6:51 am
Fri, Feb 24
44 °FLight rain. Partly sunny.No wind89%29.89 "Hg8 mi
5:51 am44 °FOvercast.5 mph93%29.90 "Hg10 mi
4:51 am47 °FMostly cloudy.No wind86%29.90 "Hg10 mi
3:51 am46 °FOvercast.No wind86%29.90 "Hg10 mi
2:51 am46 °FLow clouds.No wind86%29.90 "Hg10 mi
2:34 am45 °FLow clouds.No wind86%29.90 "Hg10 mi
1:51 am44 °FPassing clouds.No wind89%29.89 "Hg10 mi
12:51 am45 °FLight fog.No wind90%29.88 "Hg10 mi
11:51 pm
Thu, Feb 23
47 °FPassing clouds.No wind86%29.87 "Hg10 mi
10:51 pm47 °FPassing clouds.No wind80%29.85 "Hg10 mi
9:51 pm48 °FPassing clouds.No wind80%29.84 "Hg10 mi
8:51 pm55 °FPassing clouds.No wind72%29.83 "Hg10 mi
7:51 pm63 °FPassing clouds.7 mph56%29.80 "Hg10 mi
6:51 pm62 °FPassing clouds.5 mph58%29.78 "Hg10 mi
5:51 pm64 °FPassing clouds.7 mph54%29.75 "Hg10 mi
4:51 pm67 °FPassing clouds.8 mph47%29.72 "Hg10 mi
3:51 pm68 °FPartly sunny.10 mph45%29.72 "Hg10 mi
2:51 pm69 °FPassing clouds.13 mph44%29.69 "Hg10 mi
1:51 pm67 °FPassing clouds.15 mph45%29.69 "Hg10 mi
12:51 pm65 °FPassing clouds.14 mph45%29.72 "Hg10 mi
11:51 am60 °FPassing clouds.20 mph52%29.75 "Hg10 mi
10:51 am56 °FPartly sunny.14 mph55%29.78 "Hg10 mi
9:51 am52 °FPassing clouds.12 mph61%29.82 "Hg10 mi
8:51 am48 °FPassing clouds.14 mph68%29.83 "Hg10 mi
7:51 am46 °FPassing clouds.9 mph71%29.83 "Hg10 mi
Weather by CustomWeather, © 2017

See weather overviewHow to use our weather pages